Location: Bucquoy
(50.1391°N, 2.7097°E)
Time: 03:51:02
(UTC+00:00)

Cosmos 2297 Rocket - Pass Details

Date: 06 May 2021
Orbit: 838 x 845 km, 71.0° (Epoch: 22 June)

Event Time Altitude Azimuth Distance (km) Brightness Sun altitude
Rises 02:13:21 0° 331° (NNW) 3,413 5.7 -15.8°
Reaches altitude 10° 02:15:50 10° 335° (NNW) 2,475 5.0 -15.6°
Maximum altitude 02:21:29 66° 58° (ENE) 923 2.6 -15.0°
Drops below altitude 10° 02:27:07 10° 140° (SE) 2,462 4.5 -14.4°
Sets 02:29:34 0° 143° (SE) 3,394 5.2 -14.2°
